Billings, MT

7:44 PM MDT on April 18, 2015 (GMT -0600)
Downtown Billings | | Change Station
CLOSE
Current Station
Personal Weather Station
Location: Billings, MT
Elevation: 3127 ft
Nearby Weather Stations

Elev 3127 ft 45.78 °N, 108.50 °W | Updated 16 minutes ago

Partly Cloudy
Partly Cloudy
50.5 °F
Feels Like 50.5 °F
N
14.5
Wind Variable Wind from North
Gusts 23.0 mph

Today
High -- | Low -- °F
--% Chance of Precip.
Yesterday
High -- | Low -- °F
Precip. -- in
6:23 AM 8:04 PM
New Moon, 0% visible
Pressure 30.20 in
Visibility 10.0 miles
Clouds Scattered Clouds 5000 ft
Scattered Clouds 12000 ft
Dew Point 32 °F
Humidity 48%
Rainfall -999.00 in
Snow Depth Not available.
UV 1 out of 12
Pollen 9.10 out of 12
Air Quality Not available.
Flu Activity Regional
METAR KBIL 190053Z 01017G24KT 10SM SCT050 SCT120 09/M02 A3018 RMK AO2 SLP227 T00891017

More Conditions Fewer Conditions

Pressure 30.20 in
Visibility 10.0 miles
Clouds Scattered Clouds 5000 ft
Scattered Clouds 12000 ft
Dew Point 32 °F
Humidity 48%
Rainfall -999.00 in
Snow Depth Not available.
UV 1 out of 12
Pollen 9.10 out of 12
Air Quality Not available.
Flu Activity Regional
METAR KBIL 190053Z 01017G24KT 10SM SCT050 SCT120 09/M02 A3018 RMK AO2 SLP227 T00891017

More Conditions Fewer Conditions

10-Day Weather Forecast

Almanac

Astronomy

Apr. 18, 2015 Rise Set
Actual Time
Civil Twilight
Nautical Twilight
Astronomical Twilight
Moon
Length of Visible Light
Length of Day
Tomorrow will be .
, % of the Moon is Illuminated

Today's Extremes

State Highs State Lows

Community

WunderPhotos

Upload Photos

1,814,621 photos uploaded!

WunderBlogs® & News

Nearby

Air Quality

  Air Quality AQ Index Pollutant
Not available.

Snow Depth

Station Depth Elevation

Earthquake Activity

City Distance Mag. Time & Date
Minimum magnitude displayed is 2.5.

Coastal Water Temperatures

Place Temperature

Stations

Nearby Weather Stations

Station Location Temp. Windchill Dew Point Humidity Wind Precip. Elev Updated Type